Simultaneous Nadir Overpasses (SNOs) Predictions

Prediction of SNOs between GOES-15 and LANDSAT-8 Satellite Orbit:

Table of predicted SNOs for the next 14.0 days since TLE Epoch: 10/8/2022
Index Date Time (GOES-15) GOES-15 Lat,Lon LANDSAT-8 Lat,Lon Distance(km) Time Diff (sec)
1 10/09/2022 06:40:25 0.30,-128.28 0.52,-127.29 112.54 80
2 10/09/2022 19:01:40 -0.31,-128.29 0.58,-132.44 472.83 80
3 10/11/2022 06:28:12 0.30,-128.31 1.15,-124.33 453.04 80
4 10/11/2022 18:49:27 -0.30,-128.32 -0.05,-129.48 132.17 80
5 10/13/2022 18:39:54 -0.30,-128.35 -0.70,-126.52 207.99 80
6 10/14/2022 07:01:18 0.30,-128.36 -0.38,-131.71 380.70 80
7 10/16/2022 06:49:04 0.29,-128.38 0.23,-128.74 41.25 80
8 10/18/2022 06:34:10 0.29,-128.39 0.85,-125.77 297.84 80
9 10/18/2022 18:55:25 -0.29,-128.38 0.23,-130.93 289.22 80
10 10/20/2022 18:45:50 -0.28,-128.39 -0.35,-127.95 49.88 80
